Погода в Иванове

Россия / Владимирская область     56°10′53″N   41°28′31″E
темп.,
°C
ветер,
м/с
пор.,
м/с
влажн.,
%
обл.,
%
осадки,
мм/ч
давл.,
гПа
погр.,
м
18 апреля, вс
вс1800:00+5всв412711 0.0 1023371
03:00+4всв413762 0.0 1023382
06:00+4всв413785 0.0 1023417
09:00+9всв610565 0.0 1022806
12:00+13в573936 0.0 10221454
15:00+14в573786 0.0 10222102
18:00+12всв5950100 0.0 1022862
21:00+7всв61281100 0.0 1024663
19 апреля, пн
пн1900:00+4всв51181100 0.0 1026567
03:00+3всв51072100 0.0 1026516
06:00+2всв51173100 0.0 1026502
09:00+4всв6960100 0.0 1027707
12:00+7в6952100 0.0 10271246
15:00+8в5943100 0.0 10271587
18:00+7в51043100 0.0 10261692
21:00+5в51146100 0.0 10271047
20 апреля, вт
вт2000:00+4в51148100 0.0 1027978
03:00+2в51257100 0.0 1027708
06:00+2в5126499 0.0 1026623
09:00+5вюв6115893 0.0 1026793
12:00+7вюв6969100 0.0 10261036
15:00+9вюв6105793 0.0 10241226
18:00+9вюв61252100 0.0 10221373
21:00+7вюв71451100 0.0 10211032
21 апреля, ср
ср2100:00+5в81649100 0.0 1017998
03:00+4вюв91965100 0.6 10141177
06:00+3вюв81695100 3.6 10121071
09:00+4вюв81688100 3.7 1011971
12:00+5юв81689100 0.6 1010989
15:00+6юв71689100 0.8 10091158
18:00+6юв81591100 0.6 10091264
21:00+6ю61483100 0.8 10121376
22 апреля, чт
чт2200:00+6ю61381100 0.1 10141362
03:00+6ю51279100 0.1 10161094
06:00+6ю61282100 0.0 1017950
09:00+7юз597699 0.0 10201019
12:00+10ююз586299 0.1 10211505
15:00+12юз475399 0.3 10221725
18:00+10ю246396 0.2 1023166
21:00+8ю377593 0.2 1024171